Time,TemperatureF,DewpointF,PressureIn,WindDirection,WindDirectionDegrees,WindSpeedMPH,WindSpeedGustMPH,Humidity,HourlyPrecipIn,Conditions,Clouds,dailyrainin,SoftwareType,DateUTC
2013-03-08 00:01:00,18.0,17.0,30.42,ESE,116,0.0,1.0,94,0.00,,,0.02,,2013-03-08 06:01:00,
2013-03-08 00:11:00,18.0,17.0,30.42,ESE,116,0.0,1.0,94,0.00,,,0.02,,2013-03-08 06:11:00,
2013-03-08 00:22:00,17.0,15.0,30.42,ESE,116,1.0,2.0,92,0.00,,,0.02,,2013-03-08 06:22:00,
2013-03-08 00:32:00,17.0,16.0,30.41,ESE,116,2.0,4.0,94,0.00,,,0.02,,2013-03-08 06:32:00,
2013-03-08 00:42:00,17.0,16.0,30.41,ESE,116,2.0,4.0,94,0.00,,,0.02,,2013-03-08 06:42:00,
2013-03-08 00:51:00,17.0,16.0,30.42,ESE,116,1.0,3.0,94,0.00,,,0.02,,2013-03-08 06:51:00,
2013-03-08 01:01:00,20.0,19.0,30.44,ESE,116,0.0,2.0,96,0.00,,,0.02,,2013-03-08 07:01:00,
2013-03-08 01:11:00,20.0,19.0,30.44,ESE,116,0.0,2.0,96,0.00,,,0.02,,2013-03-08 07:11:00,
2013-03-08 01:22:00,21.0,20.0,30.44,ESE,116,0.0,1.0,94,0.00,,,0.02,,2013-03-08 07:22:00,
2013-03-08 01:32:00,19.0,17.0,30.43,ESE,116,1.0,3.0,92,0.00,,,0.02,,2013-03-08 07:32:00,
2013-03-08 01:42:00,19.0,17.0,30.43,ESE,116,1.0,3.0,92,0.00,,,0.02,,2013-03-08 07:42:00,
2013-03-08 01:51:00,17.0,15.0,30.43,ESE,115,2.0,3.0,93,0.00,,,0.02,,2013-03-08 07:51:00,
2013-03-08 02:01:00,18.0,17.0,30.43,ESE,115,1.0,2.0,94,0.00,,,0.02,,2013-03-08 08:01:00,
2013-03-08 02:11:00,18.0,17.0,30.43,ESE,115,1.0,2.0,94,0.00,,,0.02,,2013-03-08 08:11:00,
2013-03-08 02:22:00,19.0,18.0,30.45,ESE,115,1.0,3.0,95,0.00,,,0.02,,2013-03-08 08:22:00,
2013-03-08 02:32:00,21.0,20.0,30.45,ESE,115,1.0,2.0,95,0.00,,,0.02,,2013-03-08 08:32:00,
2013-03-08 02:42:00,21.0,20.0,30.45,ESE,115,1.0,2.0,95,0.00,,,0.02,,2013-03-08 08:42:00,
2013-03-08 02:52:00,18.0,16.0,30.45,ESE,115,1.0,3.0,92,0.00,,,0.02,,2013-03-08 08:52:00,
2013-03-08 03:03:00,16.0,14.0,30.43,ESE,115,2.0,3.0,91,0.00,,,0.02,,2013-03-08 09:03:00,
2013-03-08 03:11:00,16.0,14.0,30.43,ESE,115,2.0,3.0,91,0.00,,,0.02,,2013-03-08 09:11:00,
2013-03-08 03:21:00,16.0,15.0,30.42,ESE,115,2.0,4.0,94,0.00,,,0.02,,2013-03-08 09:21:00,
2013-03-08 03:32:00,18.0,17.0,30.42,East,86,4.0,6.0,95,0.00,,,0.02,,2013-03-08 09:32:00,
2013-03-08 03:42:00,18.0,17.0,30.42,East,86,4.0,6.0,95,0.00,,,0.02,,2013-03-08 09:42:00,
2013-03-08 03:52:00,19.0,17.0,30.43,East,86,0.0,3.0,93,0.00,,,0.02,,2013-03-08 09:52:00,
2013-03-08 04:01:00,18.0,16.0,30.43,East,86,1.0,2.0,93,0.00,,,0.02,,2013-03-08 10:01:00,
2013-03-08 04:11:00,18.0,16.0,30.43,East,86,1.0,2.0,93,0.00,,,0.02,,2013-03-08 10:11:00,
2013-03-08 04:21:00,18.0,17.0,30.44,East,86,0.0,1.0,94,0.00,,,0.02,,2013-03-08 10:21:00,
2013-03-08 04:32:00,18.0,17.0,30.45,East,86,1.0,2.0,95,0.00,,,0.02,,2013-03-08 10:32:00,
2013-03-08 04:41:00,18.0,17.0,30.45,East,86,1.0,2.0,95,0.00,,,0.02,,2013-03-08 10:41:00,
2013-03-08 04:51:00,17.0,15.0,30.45,East,86,0.0,2.0,93,0.00,,,0.02,,2013-03-08 10:51:00,
2013-03-08 05:01:00,16.0,14.0,30.45,East,86,0.0,2.0,92,0.00,,,0.02,,2013-03-08 11:01:00,
2013-03-08 05:11:00,16.0,14.0,30.45,East,86,0.0,2.0,92,0.00,,,0.02,,2013-03-08 11:11:00,
2013-03-08 05:21:00,15.0,13.0,30.45,East,86,2.0,3.0,93,0.00,,,0.02,,2013-03-08 11:21:00,
2013-03-08 05:32:00,16.0,15.0,30.45,East,86,2.0,3.0,95,0.00,,,0.02,,2013-03-08 11:32:00,
2013-03-08 05:42:00,16.0,15.0,30.45,East,86,2.0,3.0,95,0.00,,,0.02,,2013-03-08 11:42:00,
2013-03-08 05:52:00,17.0,15.0,30.45,East,86,2.0,3.0,93,0.00,,,0.02,,2013-03-08 11:52:00,
2013-03-08 06:02:00,16.0,14.0,30.46,East,86,0.0,3.0,93,0.00,,,0.02,,2013-03-08 12:02:00,
2013-03-08 06:11:00,16.0,14.0,30.46,East,86,0.0,3.0,93,0.00,,,0.02,,2013-03-08 12:11:00,
2013-03-08 06:22:00,16.0,15.0,30.46,East,86,1.0,2.0,94,0.00,,,0.02,,2013-03-08 12:22:00,
2013-03-08 06:32:00,18.0,17.0,30.46,East,86,1.0,3.0,95,0.00,,,0.02,,2013-03-08 12:32:00,
2013-03-08 06:43:00,18.0,17.0,30.46,East,86,1.0,3.0,95,0.00,,,0.02,,2013-03-08 12:43:00,
2013-03-08 06:52:00,18.0,17.0,30.46,East,86,1.0,2.0,94,0.00,,,0.02,,2013-03-08 12:52:00,
2013-03-08 07:01:00,18.0,17.0,30.46,East,87,4.0,5.0,94,0.00,,,0.02,,2013-03-08 13:01:00,
2013-03-08 07:11:00,18.0,17.0,30.46,East,87,4.0,5.0,94,0.00,,,0.02,,2013-03-08 13:11:00,
2013-03-08 07:22:00,17.0,15.0,30.46,East,85,2.0,5.0,92,0.00,,,0.02,,2013-03-08 13:22:00,
2013-03-08 07:32:00,17.0,16.0,30.46,East,85,2.0,3.0,94,0.00,,,0.02,,2013-03-08 13:32:00,
2013-03-08 07:42:00,17.0,16.0,30.46,East,85,2.0,3.0,94,0.00,,,0.02,,2013-03-08 13:42:00,
2013-03-08 07:52:00,20.0,19.0,30.47,East,86,2.0,5.0,95,0.00,,,0.02,,2013-03-08 13:52:00,
2013-03-08 08:02:00,21.0,20.0,30.47,East,87,3.0,5.0,94,0.00,,,0.02,,2013-03-08 14:02:00,
2013-03-08 08:11:00,21.0,20.0,30.47,East,87,3.0,5.0,94,0.00,,,0.02,,2013-03-08 14:11:00,
2013-03-08 08:22:00,23.0,21.0,30.47,East,89,5.0,6.0,93,0.00,,,0.02,,2013-03-08 14:22:00,
2013-03-08 08:32:00,23.0,21.0,30.48,East,94,5.0,7.0,93,0.00,,,0.02,,2013-03-08 14:32:00,
2013-03-08 08:42:00,23.0,21.0,30.48,East,94,5.0,7.0,93,0.00,,,0.02,,2013-03-08 14:42:00,
2013-03-08 08:52:00,24.0,22.0,30.48,East,95,4.0,6.0,91,0.00,,,0.02,,2013-03-08 14:52:00,
2013-03-08 09:03:00,26.0,24.0,30.48,East,95,3.0,5.0,91,0.00,,,0.02,,2013-03-08 15:03:00,
2013-03-08 09:11:00,26.0,24.0,30.48,East,95,3.0,5.0,91,0.00,,,0.02,,2013-03-08 15:11:00,
2013-03-08 09:22:00,26.0,23.0,30.48,East,98,6.0,7.0,88,0.00,,,0.02,,2013-03-08 15:22:00,
2013-03-08 09:32:00,27.0,24.0,30.48,East,98,6.0,8.0,89,0.00,,,0.02,,2013-03-08 15:32:00,
2013-03-08 09:42:00,27.0,24.0,30.48,East,98,6.0,8.0,89,0.00,,,0.02,,2013-03-08 15:42:00,
2013-03-08 09:53:00,28.0,25.0,30.48,ESE,109,6.0,8.0,90,0.00,,,0.02,,2013-03-08 15:53:00,
2013-03-08 10:01:00,30.0,27.0,30.47,ESE,108,6.0,9.0,87,0.00,,,0.02,,2013-03-08 16:01:00,
2013-03-08 10:11:00,30.0,27.0,30.47,ESE,108,6.0,9.0,87,0.00,,,0.02,,2013-03-08 16:11:00,
2013-03-08 10:22:00,31.0,27.0,30.47,ESE,111,7.0,10.0,86,0.00,,,0.02,,2013-03-08 16:22:00,
2013-03-08 10:32:00,34.0,29.0,30.48,ESE,115,7.0,9.0,82,0.00,,,0.01,,2013-03-08 16:32:00,
2013-03-08 10:42:00,34.0,29.0,30.48,ESE,115,7.0,9.0,82,0.00,,,0.01,,2013-03-08 16:42:00,
2013-03-08 10:52:00,33.0,28.0,30.47,SE,135,8.0,11.0,82,0.00,,,0.01,,2013-03-08 16:52:00,
2013-03-08 11:02:00,34.0,29.0,30.47,SE,126,9.0,12.0,82,0.00,,,0.01,,2013-03-08 17:02:00,
2013-03-08 11:11:00,34.0,29.0,30.47,SE,126,9.0,12.0,82,0.00,,,0.01,,2013-03-08 17:11:00,
2013-03-08 11:21:00,34.0,29.0,30.47,SE,133,8.0,11.0,81,0.00,,,0.01,,2013-03-08 17:21:00,
2013-03-08 11:32:00,34.0,29.0,30.47,SE,132,9.0,13.0,81,0.00,,,0.00,,2013-03-08 17:32:00,
2013-03-08 11:42:00,34.0,29.0,30.47,SE,132,9.0,13.0,81,0.00,,,0.00,,2013-03-08 17:42:00,
2013-03-08 11:52:00,34.0,28.0,30.47,SE,134,9.0,14.0,80,0.00,,,0.00,,2013-03-08 17:52:00,
2013-03-08 12:02:00,35.0,29.0,30.46,SE,131,9.0,13.0,80,0.00,,,0.00,,2013-03-08 18:02:00,
2013-03-08 12:11:00,35.0,29.0,30.46,SE,131,9.0,13.0,80,0.00,,,0.00,,2013-03-08 18:11:00,
2013-03-08 12:21:00,35.0,30.0,30.45,SE,127,8.0,13.0,81,0.00,,,0.00,,2013-03-08 18:21:00,
2013-03-08 12:32:00,35.0,30.0,30.45,SE,128,7.0,11.0,81,0.00,,,0.00,,2013-03-08 18:32:00,
2013-03-08 12:42:00,35.0,30.0,30.45,SE,128,7.0,11.0,81,0.00,,,0.00,,2013-03-08 18:42:00,
2013-03-08 12:52:00,35.0,30.0,30.45,SE,130,10.0,12.0,82,0.00,,,0.00,,2013-03-08 18:52:00,
2013-03-08 13:01:00,36.0,30.0,30.43,SE,139,9.0,11.0,80,0.00,,,0.00,,2013-03-08 19:01:00,
2013-03-08 13:11:00,36.0,30.0,30.43,SE,139,9.0,11.0,80,0.00,,,0.00,,2013-03-08 19:11:00,
2013-03-08 13:22:00,36.0,31.0,30.42,SSE,148,8.0,13.0,81,0.00,,,0.00,,2013-03-08 19:22:00,
2013-03-08 13:32:00,36.0,31.0,30.42,SSE,163,9.0,11.0,83,0.00,,,0.00,,2013-03-08 19:32:00,
2013-03-08 13:42:00,36.0,31.0,30.42,SSE,163,9.0,11.0,83,0.00,,,0.00,,2013-03-08 19:42:00,
2013-03-08 13:52:00,36.0,31.0,30.41,SE,135,8.0,12.0,82,0.00,,,0.00,,2013-03-08 19:52:00,
2013-03-08 14:01:00,37.0,32.0,30.40,SE,134,7.0,10.0,81,0.00,,,0.00,,2013-03-08 20:01:00,
2013-03-08 14:11:00,37.0,32.0,30.40,SE,134,7.0,10.0,81,0.00,,,0.00,,2013-03-08 20:11:00,
2013-03-08 14:21:00,37.0,32.0,30.41,ESE,123,6.0,10.0,82,0.00,,,0.00,,2013-03-08 20:21:00,
2013-03-08 14:32:00,37.0,32.0,30.40,ESE,119,8.0,11.0,82,0.00,,,0.00,,2013-03-08 20:32:00,
2013-03-08 14:42:00,37.0,32.0,30.40,ESE,119,8.0,11.0,82,0.00,,,0.00,,2013-03-08 20:42:00,
2013-03-08 14:52:00,37.0,32.0,30.40,ESE,119,8.0,13.0,82,0.00,,,0.00,,2013-03-08 20:52:00,
2013-03-08 15:02:00,37.0,32.0,30.38,ESE,109,8.0,11.0,81,0.00,,,0.00,,2013-03-08 21:02:00,
2013-03-08 15:11:00,37.0,32.0,30.38,ESE,109,8.0,11.0,81,0.00,,,0.00,,2013-03-08 21:11:00,
2013-03-08 15:21:00,37.0,32.0,30.37,ESE,111,7.0,11.0,82,0.00,,,0.00,,2013-03-08 21:21:00,
2013-03-08 15:32:00,37.0,32.0,30.37,ESE,109,8.0,10.0,81,0.00,,,0.00,,2013-03-08 21:32:00,
2013-03-08 15:42:00,37.0,32.0,30.37,ESE,109,8.0,10.0,81,0.00,,,0.00,,2013-03-08 21:42:00,
2013-03-08 15:52:00,37.0,32.0,30.37,SE,127,8.0,12.0,81,0.00,,,0.00,,2013-03-08 21:52:00,
2013-03-08 16:01:00,37.0,32.0,30.37,ESE,123,7.0,10.0,82,0.00,,,0.00,,2013-03-08 22:01:00,
2013-03-08 16:11:00,37.0,32.0,30.37,ESE,123,7.0,10.0,82,0.00,,,0.00,,2013-03-08 22:11:00,
2013-03-08 16:22:00,37.0,32.0,30.37,SE,124,7.0,11.0,82,0.00,,,0.00,,2013-03-08 22:22:00,
2013-03-08 16:32:00,37.0,32.0,30.37,SE,136,7.0,10.0,82,0.00,,,0.00,,2013-03-08 22:32:00,
2013-03-08 16:42:00,37.0,32.0,30.37,SE,136,7.0,10.0,82,0.00,,,0.00,,2013-03-08 22:42:00,
2013-03-08 16:52:00,36.0,31.0,30.38,SE,128,4.0,9.0,83,0.00,,,0.00,,2013-03-08 22:52:00,
2013-03-08 17:01:00,36.0,32.0,30.37,ESE,117,5.0,9.0,84,0.00,,,0.00,,2013-03-08 23:01:00,
2013-03-08 17:12:00,36.0,32.0,30.37,ESE,117,5.0,9.0,84,0.00,,,0.00,,2013-03-08 23:12:00,
2013-03-08 17:21:00,36.0,32.0,30.37,ESE,111,4.0,9.0,85,0.00,,,0.00,,2013-03-08 23:21:00,
2013-03-08 17:32:00,35.0,32.0,30.37,ESE,117,4.0,8.0,87,0.00,,,0.00,,2013-03-08 23:32:00,
2013-03-08 17:42:00,35.0,32.0,30.37,ESE,117,4.0,8.0,87,0.00,,,0.00,,2013-03-08 23:42:00,
2013-03-08 17:52:00,34.0,31.0,30.37,ESE,104,6.0,8.0,87,0.00,,,0.00,,2013-03-08 23:52:00,
2013-03-08 18:02:00,34.0,31.0,30.37,ESE,102,6.0,9.0,87,0.00,,,0.00,,2013-03-09 00:02:00,
2013-03-08 18:11:00,34.0,31.0,30.37,ESE,102,6.0,9.0,87,0.00,,,0.00,,2013-03-09 00:11:00,
2013-03-08 18:22:00,33.0,30.0,30.37,ESE,111,4.0,8.0,88,0.00,,,0.00,,2013-03-09 00:22:00,
2013-03-08 18:32:00,33.0,30.0,30.37,ESE,110,4.0,8.0,88,0.00,,,0.00,,2013-03-09 00:32:00,
2013-03-08 18:42:00,33.0,30.0,30.37,ESE,110,4.0,8.0,88,0.00,,,0.00,,2013-03-09 00:42:00,
2013-03-08 18:52:00,33.0,30.0,30.37,ESE,109,5.0,8.0,88,0.00,,,0.00,,2013-03-09 00:52:00,
2013-03-08 19:01:00,32.0,29.0,30.37,ESE,111,2.0,5.0,89,0.00,,,0.00,,2013-03-09 01:01:00,
2013-03-08 19:12:00,32.0,29.0,30.38,ESE,111,3.0,5.0,89,0.00,,,0.00,,2013-03-09 01:12:00,
2013-03-08 19:22:00,32.0,29.0,30.38,ESE,111,3.0,5.0,89,0.00,,,0.00,,2013-03-09 01:22:00,
2013-03-08 19:32:00,32.0,29.0,30.37,East,98,5.0,7.0,90,0.00,,,0.00,,2013-03-09 01:32:00,
2013-03-08 19:42:00,32.0,29.0,30.37,East,98,5.0,7.0,90,0.00,,,0.00,,2013-03-09 01:42:00,
2013-03-08 19:51:00,32.0,29.0,30.37,ESE,107,6.0,8.0,89,0.00,,,0.00,,2013-03-09 01:51:00,
2013-03-08 20:01:00,32.0,29.0,30.37,ESE,109,6.0,8.0,89,0.00,,,0.00,,2013-03-09 02:01:00,
2013-03-08 20:11:00,32.0,29.0,30.37,ESE,109,6.0,8.0,89,0.00,,,0.00,,2013-03-09 02:11:00,
2013-03-08 20:21:00,32.0,29.0,30.37,ESE,107,7.0,9.0,88,0.00,,,0.00,,2013-03-09 02:21:00,
2013-03-08 20:31:00,32.0,29.0,30.36,ESE,109,8.0,10.0,89,0.00,,,0.00,,2013-03-09 02:31:00,
2013-03-08 20:41:00,32.0,29.0,30.35,ESE,104,9.0,11.0,89,0.00,,,0.00,,2013-03-09 02:41:00,
2013-03-08 20:51:00,32.0,29.0,30.35,ESE,104,9.0,11.0,89,0.00,,,0.00,,2013-03-09 02:51:00,
2013-03-08 21:01:00,33.0,30.0,30.34,ESE,107,10.0,14.0,89,0.00,,,0.00,,2013-03-09 03:01:00,
2013-03-08 21:11:00,33.0,30.0,30.34,ESE,107,10.0,14.0,89,0.00,,,0.00,,2013-03-09 03:11:00,
2013-03-08 21:21:00,33.0,30.0,30.34,ESE,105,10.0,15.0,88,0.00,,,0.00,,2013-03-09 03:21:00,
2013-03-08 21:31:00,33.0,30.0,30.33,ESE,102,10.0,12.0,88,0.00,,,0.00,,2013-03-09 03:31:00,
2013-03-08 21:41:00,33.0,30.0,30.33,ESE,102,10.0,12.0,88,0.00,,,0.00,,2013-03-09 03:41:00,
2013-03-08 21:52:00,33.0,30.0,30.33,ESE,113,10.0,13.0,88,0.00,,,0.00,,2013-03-09 03:52:00,
2013-03-08 22:01:00,33.0,30.0,30.33,ESE,107,8.0,10.0,88,0.00,,,0.00,,2013-03-09 04:01:00,
2013-03-08 22:11:00,33.0,30.0,30.33,ESE,107,8.0,10.0,88,0.00,,,0.00,,2013-03-09 04:11:00,
2013-03-08 22:22:00,32.0,29.0,30.33,ESE,107,8.0,10.0,88,0.00,,,0.00,,2013-03-09 04:22:00,
2013-03-08 22:32:00,32.0,29.0,30.32,ESE,117,8.0,10.0,89,0.00,,,0.00,,2013-03-09 04:32:00,
2013-03-08 22:41:00,32.0,29.0,30.32,ESE,117,8.0,10.0,89,0.00,,,0.00,,2013-03-09 04:41:00,
2013-03-08 22:51:00,32.0,29.0,30.32,ESE,107,8.0,11.0,88,0.00,,,0.00,,2013-03-09 04:51:00,
2013-03-08 23:02:00,32.0,29.0,30.31,SE,125,7.0,10.0,88,0.00,,,0.00,,2013-03-09 05:02:00,
2013-03-08 23:12:00,32.0,29.0,30.31,SE,125,7.0,10.0,88,0.00,,,0.00,,2013-03-09 05:12:00,
2013-03-08 23:22:00,32.0,29.0,30.31,SE,125,7.0,10.0,88,0.00,,,0.00,,2013-03-09 05:22:00,
2013-03-08 23:32:00,32.0,29.0,30.30,ESE,117,9.0,12.0,87,0.00,,,0.00,,2013-03-09 05:32:00,
2013-03-08 23:42:00,32.0,29.0,30.30,ESE,117,9.0,12.0,87,0.00,,,0.00,,2013-03-09 05:42:00,
2013-03-08 23:53:00,32.0,29.0,30.30,East,101,10.0,13.0,87,0.00,,,0.00,,2013-03-09 05:53:00,